Data supplied by UK-AIR on 5/4/2008
All Data GMT hour ending 
Status: R =Ratified P=Provisional,P*=As supplied
,,Walsall Alumwell,,,,,,,,,,,,,,,,,,,,,,,
Date,time,"Nitric oxide",status,unit,"Nitrogen dioxide",status,unit,"Nitrogen oxides as nitrogen dioxide",status,unit
 
01-01-1991,01:00,,,,,,,,,
01-01-1991,02:00,13,R,ugm-3,53,R,ugm-3,73,R,ugm-3
01-01-1991,03:00,11,R,ugm-3,61,R,ugm-3,78,R,ugm-3
01-01-1991,04:00,6,R,ugm-3,59,R,ugm-3,69,R,ugm-3
01-01-1991,05:00,6,R,ugm-3,59,R,ugm-3,69,R,ugm-3
01-01-1991,06:00,9,R,ugm-3,53,R,ugm-3,67,R,ugm-3
01-01-1991,07:00,6,R,ugm-3,57,R,ugm-3,67,R,ugm-3
01-01-1991,08:00,11,R,ugm-3,53,R,ugm-3,71,R,ugm-3
01-01-1991,09:00,19,R,ugm-3,52,R,ugm-3,80,R,ugm-3
01-01-1991,10:00,14,R,ugm-3,52,R,ugm-3,73,R,ugm-3
01-01-1991,11:00,15,R,ugm-3,48,R,ugm-3,71,R,ugm-3
01-01-1991,12:00,16,R,ugm-3,42,R,ugm-3,67,R,ugm-3
01-01-1991,13:00,18,R,ugm-3,50,R,ugm-3,76,R,ugm-3
01-01-1991,14:00,19,R,ugm-3,55,R,ugm-3,84,R,ugm-3
01-01-1991,15:00,18,R,ugm-3,46,R,ugm-3,73,R,ugm-3
01-01-1991,16:00,11,R,ugm-3,52,R,ugm-3,69,R,ugm-3
01-01-1991,17:00,11,R,ugm-3,52,R,ugm-3,69,R,ugm-3
01-01-1991,18:00,9,R,ugm-3,53,R,ugm-3,67,R,ugm-3
01-01-1991,19:00,11,R,ugm-3,52,R,ugm-3,69,R,ugm-3
01-01-1991,20:00,11,R,ugm-3,50,R,ugm-3,67,R,ugm-3
01-01-1991,21:00,13,R,ugm-3,48,R,ugm-3,67,R,ugm-3
01-01-1991,22:00,9,R,ugm-3,53,R,ugm-3,67,R,ugm-3
01-01-1991,23:00,13,R,ugm-3,50,R,ugm-3,69,R,ugm-3
01-01-1991,24:00,13,R,ugm-3,50,R,ugm-3,69,R,ugm-3
02-01-1991,01:00,15,R,ugm-3,46,R,ugm-3,69,R,ugm-3
02-01-1991,02:00,15,R,ugm-3,46,R,ugm-3,69,R,ugm-3
02-01-1991,03:00,14,R,ugm-3,48,R,ugm-3,69,R,ugm-3
02-01-1991,04:00,15,R,ugm-3,46,R,ugm-3,69,R,ugm-3
02-01-1991,05:00,16,R,ugm-3,42,R,ugm-3,67,R,ugm-3
02-01-1991,06:00,25,R,ugm-3,31,R,ugm-3,69,R,ugm-3
02-01-1991,07:00,38,R,ugm-3,27,R,ugm-3,84,R,ugm-3
02-01-1991,08:00,58,R,ugm-3,40,R,ugm-3,128,R,ugm-3
02-01-1991,09:00,55,R,ugm-3,40,R,ugm-3,124,R,ugm-3
02-01-1991,10:00,69,R,ugm-3,44,R,ugm-3,149,R,ugm-3
02-01-1991,11:00,71,R,ugm-3,42,R,ugm-3,151,R,ugm-3
02-01-1991,12:00,74,R,ugm-3,48,R,ugm-3,160,R,ugm-3
02-01-1991,13:00,71,R,ugm-3,53,R,ugm-3,162,R,ugm-3
02-01-1991,14:00,86,R,ugm-3,53,R,ugm-3,185,R,ugm-3
02-01-1991,15:00,71,R,ugm-3,38,R,ugm-3,147,R,ugm-3
02-01-1991,16:00,65,R,ugm-3,38,R,ugm-3,138,R,ugm-3
02-01-1991,17:00,60,R,ugm-3,34,R,ugm-3,126,R,ugm-3
02-01-1991,18:00,59,R,ugm-3,44,R,ugm-3,134,R,ugm-3
02-01-1991,19:00,90,R,ugm-3,50,R,ugm-3,187,R,ugm-3
02-01-1991,20:00,80,R,ugm-3,48,R,ugm-3,170,R,ugm-3
02-01-1991,21:00,43,R,ugm-3,32,R,ugm-3,97,R,ugm-3
02-01-1991,22:00,46,R,ugm-3,48,R,ugm-3,118,R,ugm-3
02-01-1991,23:00,39,R,ugm-3,36,R,ugm-3,96,R,ugm-3
02-01-1991,24:00,31,R,ugm-3,34,R,ugm-3,82,R,ugm-3
03-01-1991,01:00,24,R,ugm-3,42,R,ugm-3,78,R,ugm-3
03-01-1991,02:00,18,R,ugm-3,44,R,ugm-3,71,R,ugm-3
03-01-1991,03:00,20,R,ugm-3,38,R,ugm-3,69,R,ugm-3
03-01-1991,04:00,18,R,ugm-3,42,R,ugm-3,69,R,ugm-3
03-01-1991,05:00,28,R,ugm-3,48,R,ugm-3,90,R,ugm-3
03-01-1991,06:00,30,R,ugm-3,38,R,ugm-3,84,R,ugm-3
03-01-1991,07:00,65,R,ugm-3,53,R,ugm-3,153,R,ugm-3
03-01-1991,08:00,96,R,ugm-3,63,R,ugm-3,210,R,ugm-3
03-01-1991,09:00,174,R,ugm-3,84,R,ugm-3,350,R,ugm-3
03-01-1991,10:00,148,R,ugm-3,82,R,ugm-3,308,R,ugm-3
03-01-1991,11:00,101,R,ugm-3,71,R,ugm-3,225,R,ugm-3
03-01-1991,12:00,83,R,ugm-3,69,R,ugm-3,195,R,ugm-3
03-01-1991,13:00,59,R,ugm-3,57,R,ugm-3,147,R,ugm-3
03-01-1991,14:00,50,R,ugm-3,57,R,ugm-3,134,R,ugm-3
03-01-1991,15:00,49,R,ugm-3,69,R,ugm-3,143,R,ugm-3
03-01-1991,16:00,91,R,ugm-3,67,R,ugm-3,206,R,ugm-3
03-01-1991,17:00,119,R,ugm-3,80,R,ugm-3,262,R,ugm-3
03-01-1991,18:00,89,R,ugm-3,73,R,ugm-3,208,R,ugm-3
03-01-1991,19:00,118,R,ugm-3,74,R,ugm-3,254,R,ugm-3
03-01-1991,20:00,79,R,ugm-3,67,R,ugm-3,187,R,ugm-3
03-01-1991,21:00,74,R,ugm-3,65,R,ugm-3,178,R,ugm-3
03-01-1991,22:00,54,R,ugm-3,63,R,ugm-3,145,R,ugm-3
03-01-1991,23:00,29,R,ugm-3,38,R,ugm-3,82,R,ugm-3
03-01-1991,24:00,33,R,ugm-3,48,R,ugm-3,97,R,ugm-3
04-01-1991,01:00,23,R,ugm-3,46,R,ugm-3,80,R,ugm-3
04-01-1991,02:00,16,R,ugm-3,50,R,ugm-3,74,R,ugm-3
04-01-1991,03:00,14,R,ugm-3,48,R,ugm-3,69,R,ugm-3
04-01-1991,04:00,15,R,ugm-3,48,R,ugm-3,71,R,ugm-3
04-01-1991,05:00,19,R,ugm-3,46,R,ugm-3,74,R,ugm-3
04-01-1991,06:00,24,R,ugm-3,48,R,ugm-3,84,R,ugm-3
04-01-1991,07:00,58,R,ugm-3,59,R,ugm-3,147,R,ugm-3
04-01-1991,08:00,90,R,ugm-3,71,R,ugm-3,208,R,ugm-3
04-01-1991,09:00,100,R,ugm-3,78,R,ugm-3,231,R,ugm-3
04-01-1991,10:00,110,R,ugm-3,86,R,ugm-3,254,R,ugm-3
04-01-1991,11:00,96,R,ugm-3,73,R,ugm-3,220,R,ugm-3
04-01-1991,12:00,80,R,ugm-3,67,R,ugm-3,189,R,ugm-3
04-01-1991,13:00,76,R,ugm-3,55,R,ugm-3,172,R,ugm-3
04-01-1991,14:00,81,R,ugm-3,59,R,ugm-3,183,R,ugm-3
04-01-1991,15:00,73,R,ugm-3,65,R,ugm-3,176,R,ugm-3
04-01-1991,16:00,81,R,ugm-3,71,R,ugm-3,195,R,ugm-3
04-01-1991,17:00,83,R,ugm-3,73,R,ugm-3,199,R,ugm-3
04-01-1991,18:00,134,R,ugm-3,82,R,ugm-3,287,R,ugm-3
04-01-1991,19:00,84,R,ugm-3,71,R,ugm-3,199,R,ugm-3
04-01-1991,20:00,60,R,ugm-3,67,R,ugm-3,159,R,ugm-3
04-01-1991,21:00,50,R,ugm-3,59,R,ugm-3,136,R,ugm-3
04-01-1991,22:00,38,R,ugm-3,73,R,ugm-3,130,R,ugm-3
04-01-1991,23:00,33,R,ugm-3,69,R,ugm-3,118,R,ugm-3
04-01-1991,24:00,25,R,ugm-3,57,R,ugm-3,96,R,ugm-3
05-01-1991,01:00,33,R,ugm-3,57,R,ugm-3,107,R,ugm-3
05-01-1991,02:00,21,R,ugm-3,44,R,ugm-3,76,R,ugm-3
05-01-1991,03:00,11,R,ugm-3,52,R,ugm-3,69,R,ugm-3
05-01-1991,04:00,10,R,ugm-3,52,R,ugm-3,67,R,ugm-3
05-01-1991,05:00,11,R,ugm-3,52,R,ugm-3,69,R,ugm-3
05-01-1991,06:00,9,R,ugm-3,55,R,ugm-3,69,R,ugm-3
05-01-1991,07:00,9,R,ugm-3,55,R,ugm-3,69,R,ugm-3
05-01-1991,08:00,23,R,ugm-3,42,R,ugm-3,76,R,ugm-3
05-01-1991,09:00,30,R,ugm-3,48,R,ugm-3,94,R,ugm-3
05-01-1991,10:00,34,R,ugm-3,50,R,ugm-3,101,R,ugm-3
05-01-1991,11:00,31,R,ugm-3,42,R,ugm-3,90,R,ugm-3
05-01-1991,12:00,31,R,ugm-3,42,R,ugm-3,90,R,ugm-3
05-01-1991,13:00,34,R,ugm-3,44,R,ugm-3,96,R,ugm-3
05-01-1991,14:00,28,R,ugm-3,36,R,ugm-3,78,R,ugm-3
05-01-1991,15:00,33,R,ugm-3,38,R,ugm-3,88,R,ugm-3
05-01-1991,16:00,28,R,ugm-3,36,R,ugm-3,78,R,ugm-3
05-01-1991,17:00,28,R,ugm-3,38,R,ugm-3,80,R,ugm-3
05-01-1991,18:00,30,R,ugm-3,38,R,ugm-3,84,R,ugm-3
05-01-1991,19:00,20,R,ugm-3,36,R,ugm-3,67,R,ugm-3
05-01-1991,20:00,19,R,ugm-3,40,R,ugm-3,69,R,ugm-3
05-01-1991,21:00,13,R,ugm-3,48,R,ugm-3,67,R,ugm-3
05-01-1991,22:00,11,R,ugm-3,52,R,ugm-3,69,R,ugm-3
05-01-1991,23:00,8,R,ugm-3,55,R,ugm-3,67,R,ugm-3
05-01-1991,24:00,6,R,ugm-3,57,R,ugm-3,67,R,ugm-3
06-01-1991,01:00,10,R,ugm-3,52,R,ugm-3,67,R,ugm-3
06-01-1991,02:00,9,R,ugm-3,53,R,ugm-3,67,R,ugm-3
06-01-1991,03:00,10,R,ugm-3,52,R,ugm-3,67,R,ugm-3
06-01-1991,04:00,8,R,ugm-3,55,R,ugm-3,67,R,ugm-3
06-01-1991,05:00,8,R,ugm-3,55,R,ugm-3,67,R,ugm-3
06-01-1991,06:00,8,R,ugm-3,55,R,ugm-3,67,R,ugm-3
06-01-1991,07:00,9,R,ugm-3,55,R,ugm-3,69,R,ugm-3
06-01-1991,08:00,9,R,ugm-3,53,R,ugm-3,67,R,ugm-3
06-01-1991,09:00,13,R,ugm-3,50,R,ugm-3,69,R,ugm-3
06-01-1991,10:00,19,R,ugm-3,40,R,ugm-3,69,R,ugm-3
06-01-1991,11:00,26,R,ugm-3,32,R,ugm-3,73,R,ugm-3
06-01-1991,12:00,30,R,ugm-3,31,R,ugm-3,76,R,ugm-3
06-01-1991,13:00,44,R,ugm-3,38,R,ugm-3,105,R,ugm-3
06-01-1991,14:00,50,R,ugm-3,44,R,ugm-3,120,R,ugm-3
06-01-1991,15:00,54,R,ugm-3,52,R,ugm-3,134,R,ugm-3
06-01-1991,16:00,61,R,ugm-3,53,R,ugm-3,147,R,ugm-3
06-01-1991,17:00,53,R,ugm-3,57,R,ugm-3,138,R,ugm-3
06-01-1991,18:00,44,R,ugm-3,61,R,ugm-3,128,R,ugm-3
06-01-1991,19:00,68,R,ugm-3,65,R,ugm-3,168,R,ugm-3
06-01-1991,20:00,100,R,ugm-3,69,R,ugm-3,222,R,ugm-3
06-01-1991,21:00,103,R,ugm-3,71,R,ugm-3,227,R,ugm-3
06-01-1991,22:00,104,R,ugm-3,67,R,ugm-3,225,R,ugm-3
06-01-1991,23:00,69,R,ugm-3,67,R,ugm-3,172,R,ugm-3
06-01-1991,24:00,30,R,ugm-3,55,R,ugm-3,101,R,ugm-3
07-01-1991,01:00,14,R,ugm-3,65,R,ugm-3,86,R,ugm-3
07-01-1991,02:00,10,R,ugm-3,65,R,ugm-3,80,R,ugm-3
07-01-1991,03:00,9,R,ugm-3,55,R,ugm-3,69,R,ugm-3
07-01-1991,04:00,14,R,ugm-3,50,R,ugm-3,71,R,ugm-3
07-01-1991,05:00,29,R,ugm-3,46,R,ugm-3,90,R,ugm-3
07-01-1991,06:00,29,R,ugm-3,40,R,ugm-3,84,R,ugm-3
07-01-1991,07:00,56,R,ugm-3,53,R,ugm-3,139,R,ugm-3
07-01-1991,08:00,120,R,ugm-3,76,R,ugm-3,260,R,ugm-3
07-01-1991,09:00,146,R,ugm-3,88,R,ugm-3,311,R,ugm-3
07-01-1991,10:00,90,R,ugm-3,69,R,ugm-3,206,R,ugm-3
07-01-1991,11:00,94,R,ugm-3,61,R,ugm-3,204,R,ugm-3
07-01-1991,12:00,90,R,ugm-3,57,R,ugm-3,195,R,ugm-3
07-01-1991,13:00,79,R,ugm-3,59,R,ugm-3,180,R,ugm-3
07-01-1991,14:00,60,R,ugm-3,67,R,ugm-3,159,R,ugm-3
07-01-1991,15:00,69,R,ugm-3,67,R,ugm-3,172,R,ugm-3
07-01-1991,16:00,50,R,ugm-3,65,R,ugm-3,141,R,ugm-3
07-01-1991,17:00,73,R,ugm-3,74,R,ugm-3,185,R,ugm-3
07-01-1991,18:00,101,R,ugm-3,80,R,ugm-3,235,R,ugm-3
07-01-1991,19:00,68,R,ugm-3,59,R,ugm-3,162,R,ugm-3
07-01-1991,20:00,63,R,ugm-3,59,R,ugm-3,155,R,ugm-3
07-01-1991,21:00,51,R,ugm-3,65,R,ugm-3,143,R,ugm-3
07-01-1991,22:00,40,R,ugm-3,61,R,ugm-3,122,R,ugm-3
07-01-1991,23:00,28,R,ugm-3,55,R,ugm-3,97,R,ugm-3
07-01-1991,24:00,28,R,ugm-3,53,R,ugm-3,96,R,ugm-3
08-01-1991,01:00,30,R,ugm-3,48,R,ugm-3,94,R,ugm-3
08-01-1991,02:00,35,R,ugm-3,55,R,ugm-3,109,R,ugm-3
08-01-1991,03:00,31,R,ugm-3,48,R,ugm-3,96,R,ugm-3
08-01-1991,04:00,24,R,ugm-3,42,R,ugm-3,78,R,ugm-3
08-01-1991,05:00,28,R,ugm-3,50,R,ugm-3,92,R,ugm-3
08-01-1991,06:00,51,R,ugm-3,61,R,ugm-3,139,R,ugm-3
08-01-1991,07:00,101,R,ugm-3,71,R,ugm-3,225,R,ugm-3
08-01-1991,08:00,165,R,ugm-3,90,R,ugm-3,342,R,ugm-3
08-01-1991,09:00,113,R,ugm-3,92,R,ugm-3,264,R,ugm-3
08-01-1991,10:00,94,R,ugm-3,88,R,ugm-3,231,R,ugm-3
08-01-1991,11:00,81,R,ugm-3,84,R,ugm-3,208,R,ugm-3
08-01-1991,12:00,83,R,ugm-3,82,R,ugm-3,208,R,ugm-3
08-01-1991,13:00,70,R,ugm-3,80,R,ugm-3,187,R,ugm-3
08-01-1991,14:00,54,R,ugm-3,71,R,ugm-3,153,R,ugm-3
08-01-1991,15:00,33,R,ugm-3,73,R,ugm-3,122,R,ugm-3
08-01-1991,16:00,53,R,ugm-3,78,R,ugm-3,159,R,ugm-3
08-01-1991,17:00,56,R,ugm-3,63,R,ugm-3,149,R,ugm-3
08-01-1991,18:00,38,R,ugm-3,50,R,ugm-3,107,R,ugm-3
08-01-1991,19:00,35,R,ugm-3,38,R,ugm-3,92,R,ugm-3
08-01-1991,20:00,30,R,ugm-3,23,R,ugm-3,69,R,ugm-3
08-01-1991,21:00,29,R,ugm-3,21,R,ugm-3,65,R,ugm-3
08-01-1991,22:00,23,R,ugm-3,21,R,ugm-3,55,R,ugm-3
08-01-1991,23:00,19,R,ugm-3,15,R,ugm-3,44,R,ugm-3
08-01-1991,24:00,21,R,ugm-3,17,R,ugm-3,50,R,ugm-3
09-01-1991,01:00,16,R,ugm-3,25,R,ugm-3,50,R,ugm-3
09-01-1991,02:00,23,R,ugm-3,36,R,ugm-3,71,R,ugm-3
09-01-1991,03:00,18,R,ugm-3,42,R,ugm-3,69,R,ugm-3
09-01-1991,04:00,16,R,ugm-3,38,R,ugm-3,63,R,ugm-3
09-01-1991,05:00,18,R,ugm-3,50,R,ugm-3,76,R,ugm-3
09-01-1991,06:00,25,R,ugm-3,52,R,ugm-3,90,R,ugm-3
09-01-1991,07:00,30,R,ugm-3,61,R,ugm-3,107,R,ugm-3
09-01-1991,08:00,56,R,ugm-3,71,R,ugm-3,157,R,ugm-3
09-01-1991,09:00,119,R,ugm-3,84,R,ugm-3,265,R,ugm-3
09-01-1991,10:00,128,R,ugm-3,84,R,ugm-3,279,R,ugm-3
09-01-1991,11:00,164,R,ugm-3,88,R,ugm-3,338,R,ugm-3
09-01-1991,12:00,95,R,ugm-3,80,R,ugm-3,225,R,ugm-3
09-01-1991,13:00,86,R,ugm-3,76,R,ugm-3,208,R,ugm-3
09-01-1991,14:00,76,R,ugm-3,74,R,ugm-3,191,R,ugm-3
09-01-1991,15:00,81,R,ugm-3,82,R,ugm-3,206,R,ugm-3
09-01-1991,16:00,40,R,ugm-3,90,R,ugm-3,151,R,ugm-3
09-01-1991,17:00,29,R,ugm-3,86,R,ugm-3,130,R,ugm-3
09-01-1991,18:00,36,R,ugm-3,82,R,ugm-3,138,R,ugm-3
09-01-1991,19:00,33,R,ugm-3,55,R,ugm-3,105,R,ugm-3
09-01-1991,20:00,30,R,ugm-3,52,R,ugm-3,97,R,ugm-3
09-01-1991,21:00,28,R,ugm-3,46,R,ugm-3,88,R,ugm-3
09-01-1991,22:00,25,R,ugm-3,36,R,ugm-3,74,R,ugm-3
09-01-1991,23:00,23,R,ugm-3,36,R,ugm-3,71,R,ugm-3
09-01-1991,24:00,20,R,ugm-3,40,R,ugm-3,71,R,ugm-3
10-01-1991,01:00,15,R,ugm-3,36,R,ugm-3,59,R,ugm-3
10-01-1991,02:00,13,R,ugm-3,38,R,ugm-3,57,R,ugm-3
10-01-1991,03:00,13,R,ugm-3,40,R,ugm-3,59,R,ugm-3
10-01-1991,04:00,14,R,ugm-3,29,R,ugm-3,50,R,ugm-3
10-01-1991,05:00,19,R,ugm-3,31,R,ugm-3,59,R,ugm-3
10-01-1991,06:00,43,R,ugm-3,55,R,ugm-3,120,R,ugm-3
10-01-1991,07:00,53,R,ugm-3,61,R,ugm-3,141,R,ugm-3
10-01-1991,08:00,88,R,ugm-3,74,R,ugm-3,208,R,ugm-3
10-01-1991,09:00,64,R,ugm-3,69,R,ugm-3,166,R,ugm-3
10-01-1991,10:00,110,R,ugm-3,86,R,ugm-3,254,R,ugm-3
10-01-1991,11:00,55,R,ugm-3,55,R,ugm-3,139,R,ugm-3
10-01-1991,12:00,44,R,ugm-3,48,R,ugm-3,115,R,ugm-3
10-01-1991,13:00,54,R,ugm-3,53,R,ugm-3,136,R,ugm-3
10-01-1991,14:00,64,R,ugm-3,53,R,ugm-3,151,R,ugm-3
10-01-1991,15:00,69,R,ugm-3,61,R,ugm-3,166,R,ugm-3
10-01-1991,16:00,86,R,ugm-3,71,R,ugm-3,202,R,ugm-3
10-01-1991,17:00,181,R,ugm-3,94,R,ugm-3,371,R,ugm-3
10-01-1991,18:00,119,R,ugm-3,90,R,ugm-3,271,R,ugm-3
10-01-1991,19:00,78,R,ugm-3,84,R,ugm-3,202,R,ugm-3
10-01-1991,20:00,50,R,ugm-3,69,R,ugm-3,145,R,ugm-3
10-01-1991,21:00,45,R,ugm-3,67,R,ugm-3,136,R,ugm-3
10-01-1991,22:00,38,R,ugm-3,61,R,ugm-3,118,R,ugm-3
10-01-1991,23:00,25,R,ugm-3,52,R,ugm-3,90,R,ugm-3
10-01-1991,24:00,24,R,ugm-3,48,R,ugm-3,84,R,ugm-3
11-01-1991,01:00,28,R,ugm-3,40,R,ugm-3,82,R,ugm-3
11-01-1991,02:00,25,R,ugm-3,42,R,ugm-3,80,R,ugm-3
11-01-1991,03:00,21,R,ugm-3,38,R,ugm-3,71,R,ugm-3
11-01-1991,04:00,25,R,ugm-3,38,R,ugm-3,76,R,ugm-3
11-01-1991,05:00,23,R,ugm-3,36,R,ugm-3,71,R,ugm-3
11-01-1991,06:00,41,R,ugm-3,52,R,ugm-3,115,R,ugm-3
11-01-1991,07:00,85,R,ugm-3,69,R,ugm-3,199,R,ugm-3
11-01-1991,08:00,118,R,ugm-3,73,R,ugm-3,252,R,ugm-3
11-01-1991,09:00,141,R,ugm-3,84,R,ugm-3,300,R,ugm-3
11-01-1991,10:00,201,R,ugm-3,76,R,ugm-3,384,R,ugm-3
11-01-1991,11:00,165,R,ugm-3,80,R,ugm-3,332,R,ugm-3
11-01-1991,12:00,256,R,ugm-3,88,R,ugm-3,479,R,ugm-3
11-01-1991,13:00,128,R,ugm-3,78,R,ugm-3,273,R,ugm-3
11-01-1991,14:00,96,R,ugm-3,55,R,ugm-3,202,R,ugm-3
11-01-1991,15:00,90,R,ugm-3,57,R,ugm-3,195,R,ugm-3
11-01-1991,16:00,106,R,ugm-3,59,R,ugm-3,222,R,ugm-3
11-01-1991,17:00,129,R,ugm-3,73,R,ugm-3,269,R,ugm-3
11-01-1991,18:00,129,R,ugm-3,71,R,ugm-3,267,R,ugm-3
11-01-1991,19:00,136,R,ugm-3,61,R,ugm-3,269,R,ugm-3
11-01-1991,20:00,170,R,ugm-3,67,R,ugm-3,327,R,ugm-3
11-01-1991,21:00,146,R,ugm-3,67,R,ugm-3,290,R,ugm-3
11-01-1991,22:00,70,R,ugm-3,55,R,ugm-3,162,R,ugm-3
11-01-1991,23:00,41,R,ugm-3,42,R,ugm-3,105,R,ugm-3
11-01-1991,24:00,41,R,ugm-3,48,R,ugm-3,111,R,ugm-3
12-01-1991,01:00,31,R,ugm-3,38,R,ugm-3,86,R,ugm-3
12-01-1991,02:00,38,R,ugm-3,50,R,ugm-3,107,R,ugm-3
12-01-1991,03:00,36,R,ugm-3,44,R,ugm-3,99,R,ugm-3
12-01-1991,04:00,38,R,ugm-3,50,R,ugm-3,107,R,ugm-3
12-01-1991,05:00,80,R,ugm-3,59,R,ugm-3,181,R,ugm-3
12-01-1991,06:00,133,R,ugm-3,65,R,ugm-3,267,R,ugm-3
12-01-1991,07:00,220,R,ugm-3,61,R,ugm-3,397,R,ugm-3
12-01-1991,08:00,281,R,ugm-3,55,R,ugm-3,485,R,ugm-3
12-01-1991,09:00,525,R,ugm-3,67,R,ugm-3,869,R,ugm-3
12-01-1991,10:00,581,R,ugm-3,78,R,ugm-3,966,R,ugm-3
12-01-1991,11:00,295,R,ugm-3,80,R,ugm-3,531,R,ugm-3
12-01-1991,12:00,150,R,ugm-3,63,R,ugm-3,292,R,ugm-3
12-01-1991,13:00,111,R,ugm-3,46,R,ugm-3,216,R,ugm-3
12-01-1991,14:00,189,R,ugm-3,48,R,ugm-3,336,R,ugm-3
12-01-1991,15:00,191,R,ugm-3,55,R,ugm-3,348,R,ugm-3
12-01-1991,16:00,138,R,ugm-3,53,R,ugm-3,264,R,ugm-3
12-01-1991,17:00,260,R,ugm-3,52,R,ugm-3,449,R,ugm-3
12-01-1991,18:00,379,R,ugm-3,61,R,ugm-3,640,R,ugm-3
12-01-1991,19:00,611,R,ugm-3,50,R,ugm-3,984,R,ugm-3
12-01-1991,20:00,670,R,ugm-3,55,R,ugm-3,1079,R,ugm-3
12-01-1991,21:00,605,R,ugm-3,55,R,ugm-3,980,R,ugm-3
12-01-1991,22:00,468,R,ugm-3,61,R,ugm-3,775,R,ugm-3
12-01-1991,23:00,329,R,ugm-3,53,R,ugm-3,556,R,ugm-3
12-01-1991,24:00,361,R,ugm-3,52,R,ugm-3,604,R,ugm-3
13-01-1991,01:00,393,R,ugm-3,57,R,ugm-3,657,R,ugm-3
13-01-1991,02:00,293,R,ugm-3,59,R,ugm-3,506,R,ugm-3
13-01-1991,03:00,265,R,ugm-3,55,R,ugm-3,460,R,ugm-3
13-01-1991,04:00,139,R,ugm-3,59,R,ugm-3,271,R,ugm-3
13-01-1991,05:00,199,R,ugm-3,59,R,ugm-3,363,R,ugm-3
13-01-1991,06:00,196,R,ugm-3,55,R,ugm-3,355,R,ugm-3
13-01-1991,07:00,221,R,ugm-3,55,R,ugm-3,393,R,ugm-3
13-01-1991,08:00,143,R,ugm-3,63,R,ugm-3,281,R,ugm-3
13-01-1991,09:00,431,R,ugm-3,59,R,ugm-3,718,R,ugm-3
13-01-1991,10:00,425,R,ugm-3,69,R,ugm-3,718,R,ugm-3
13-01-1991,11:00,311,R,ugm-3,90,R,ugm-3,565,R,ugm-3
13-01-1991,12:00,228,R,ugm-3,97,R,ugm-3,445,R,ugm-3
13-01-1991,13:00,60,R,ugm-3,71,R,ugm-3,162,R,ugm-3
13-01-1991,14:00,43,R,ugm-3,59,R,ugm-3,124,R,ugm-3
13-01-1991,15:00,38,R,ugm-3,61,R,ugm-3,118,R,ugm-3
13-01-1991,16:00,48,R,ugm-3,74,R,ugm-3,147,R,ugm-3
13-01-1991,17:00,125,R,ugm-3,76,R,ugm-3,267,R,ugm-3
13-01-1991,18:00,199,R,ugm-3,76,R,ugm-3,380,R,ugm-3
13-01-1991,19:00,288,R,ugm-3,82,R,ugm-3,521,R,ugm-3
13-01-1991,20:00,219,R,ugm-3,84,R,ugm-3,418,R,ugm-3
13-01-1991,21:00,164,R,ugm-3,80,R,ugm-3,330,R,ugm-3
13-01-1991,22:00,233,R,ugm-3,78,R,ugm-3,434,R,ugm-3
13-01-1991,23:00,429,R,ugm-3,92,R,ugm-3,747,R,ugm-3
13-01-1991,24:00,306,R,ugm-3,76,R,ugm-3,544,R,ugm-3
14-01-1991,01:00,336,R,ugm-3,55,R,ugm-3,569,R,ugm-3
14-01-1991,02:00,123,R,ugm-3,55,R,ugm-3,243,R,ugm-3
14-01-1991,03:00,86,R,ugm-3,63,R,ugm-3,195,R,ugm-3
14-01-1991,04:00,95,R,ugm-3,57,R,ugm-3,202,R,ugm-3
14-01-1991,05:00,45,R,ugm-3,57,R,ugm-3,126,R,ugm-3
14-01-1991,06:00,38,R,ugm-3,59,R,ugm-3,117,R,ugm-3
14-01-1991,07:00,65,R,ugm-3,57,R,ugm-3,157,R,ugm-3
14-01-1991,08:00,118,R,ugm-3,69,R,ugm-3,248,R,ugm-3
14-01-1991,09:00,138,R,ugm-3,65,R,ugm-3,275,R,ugm-3
14-01-1991,10:00,115,R,ugm-3,63,R,ugm-3,239,R,ugm-3
14-01-1991,11:00,66,R,ugm-3,67,R,ugm-3,168,R,ugm-3
14-01-1991,12:00,78,R,ugm-3,61,R,ugm-3,180,R,ugm-3
14-01-1991,13:00,93,R,ugm-3,67,R,ugm-3,208,R,ugm-3
14-01-1991,14:00,113,R,ugm-3,73,R,ugm-3,244,R,ugm-3
14-01-1991,15:00,106,R,ugm-3,73,R,ugm-3,235,R,ugm-3
14-01-1991,16:00,93,R,ugm-3,74,R,ugm-3,216,R,ugm-3
14-01-1991,17:00,98,R,ugm-3,78,R,ugm-3,227,R,ugm-3
14-01-1991,18:00,93,R,ugm-3,80,R,ugm-3,222,R,ugm-3
14-01-1991,19:00,24,R,ugm-3,61,R,ugm-3,97,R,ugm-3
14-01-1991,20:00,19,R,ugm-3,50,R,ugm-3,78,R,ugm-3
14-01-1991,21:00,18,R,ugm-3,46,R,ugm-3,73,R,ugm-3
14-01-1991,22:00,14,R,ugm-3,50,R,ugm-3,71,R,ugm-3
14-01-1991,23:00,13,R,ugm-3,42,R,ugm-3,61,R,ugm-3
14-01-1991,24:00,6,R,ugm-3,32,R,ugm-3,42,R,ugm-3
15-01-1991,01:00,10,R,ugm-3,15,R,ugm-3,31,R,ugm-3
15-01-1991,02:00,6,R,ugm-3,21,R,ugm-3,31,R,ugm-3
15-01-1991,03:00,11,R,ugm-3,27,R,ugm-3,44,R,ugm-3
15-01-1991,04:00,8,R,ugm-3,23,R,ugm-3,34,R,ugm-3
15-01-1991,05:00,9,R,ugm-3,25,R,ugm-3,38,R,ugm-3
15-01-1991,06:00,13,R,ugm-3,32,R,ugm-3,52,R,ugm-3
15-01-1991,07:00,21,R,ugm-3,42,R,ugm-3,74,R,ugm-3
15-01-1991,08:00,50,R,ugm-3,53,R,ugm-3,130,R,ugm-3
15-01-1991,09:00,69,R,ugm-3,53,R,ugm-3,159,R,ugm-3
15-01-1991,10:00,88,R,ugm-3,53,R,ugm-3,187,R,ugm-3
15-01-1991,11:00,76,R,ugm-3,50,R,ugm-3,166,R,ugm-3
15-01-1991,12:00,75,R,ugm-3,57,R,ugm-3,172,R,ugm-3
15-01-1991,13:00,49,R,ugm-3,55,R,ugm-3,130,R,ugm-3
15-01-1991,14:00,44,R,ugm-3,52,R,ugm-3,118,R,ugm-3
15-01-1991,15:00,45,R,ugm-3,57,R,ugm-3,126,R,ugm-3
15-01-1991,16:00,50,R,ugm-3,61,R,ugm-3,138,R,ugm-3
15-01-1991,17:00,93,R,ugm-3,65,R,ugm-3,206,R,ugm-3
15-01-1991,18:00,124,R,ugm-3,61,R,ugm-3,250,R,ugm-3
15-01-1991,19:00,95,R,ugm-3,61,R,ugm-3,206,R,ugm-3
15-01-1991,20:00,90,R,ugm-3,61,R,ugm-3,199,R,ugm-3
15-01-1991,21:00,155,R,ugm-3,59,R,ugm-3,296,R,ugm-3
15-01-1991,22:00,220,R,ugm-3,65,R,ugm-3,401,R,ugm-3
15-01-1991,23:00,170,R,ugm-3,67,R,ugm-3,327,R,ugm-3
15-01-1991,24:00,195,R,ugm-3,69,R,ugm-3,367,R,ugm-3
16-01-1991,01:00,144,R,ugm-3,59,R,ugm-3,279,R,ugm-3
16-01-1991,02:00,175,R,ugm-3,65,R,ugm-3,332,R,ugm-3
16-01-1991,03:00,175,R,ugm-3,67,R,ugm-3,334,R,ugm-3
16-01-1991,04:00,141,R,ugm-3,65,R,ugm-3,281,R,ugm-3
16-01-1991,05:00,144,R,ugm-3,65,R,ugm-3,285,R,ugm-3
16-01-1991,06:00,131,R,ugm-3,61,R,ugm-3,262,R,ugm-3
16-01-1991,07:00,163,R,ugm-3,65,R,ugm-3,313,R,ugm-3
16-01-1991,08:00,189,R,ugm-3,65,R,ugm-3,353,R,ugm-3
16-01-1991,09:00,238,R,ugm-3,65,R,ugm-3,428,R,ugm-3
16-01-1991,10:00,311,R,ugm-3,69,R,ugm-3,544,R,ugm-3
16-01-1991,11:00,230,R,ugm-3,67,R,ugm-3,418,R,ugm-3
16-01-1991,12:00,294,R,ugm-3,84,R,ugm-3,533,R,ugm-3
16-01-1991,13:00,281,R,ugm-3,90,R,ugm-3,520,R,ugm-3
16-01-1991,14:00,153,R,ugm-3,71,R,ugm-3,304,R,ugm-3
16-01-1991,15:00,129,R,ugm-3,67,R,ugm-3,264,R,ugm-3
16-01-1991,16:00,126,R,ugm-3,67,R,ugm-3,260,R,ugm-3
16-01-1991,17:00,141,R,ugm-3,65,R,ugm-3,281,R,ugm-3
16-01-1991,18:00,206,R,ugm-3,67,R,ugm-3,382,R,ugm-3
16-01-1991,19:00,271,R,ugm-3,73,R,ugm-3,487,R,ugm-3
16-01-1991,20:00,281,R,ugm-3,84,R,ugm-3,514,R,ugm-3
16-01-1991,21:00,245,R,ugm-3,78,R,ugm-3,453,R,ugm-3
16-01-1991,22:00,219,R,ugm-3,73,R,ugm-3,407,R,ugm-3
16-01-1991,23:00,165,R,ugm-3,71,R,ugm-3,323,R,ugm-3
16-01-1991,24:00,126,R,ugm-3,61,R,ugm-3,254,R,ugm-3
17-01-1991,01:00,99,R,ugm-3,42,R,ugm-3,193,R,ugm-3
17-01-1991,02:00,63,R,ugm-3,50,R,ugm-3,145,R,ugm-3
17-01-1991,03:00,48,R,ugm-3,48,R,ugm-3,120,R,ugm-3
17-01-1991,04:00,33,R,ugm-3,52,R,ugm-3,101,R,ugm-3
17-01-1991,05:00,21,R,ugm-3,40,R,ugm-3,73,R,ugm-3
17-01-1991,06:00,24,R,ugm-3,36,R,ugm-3,73,R,ugm-3
17-01-1991,07:00,26,R,ugm-3,32,R,ugm-3,73,R,ugm-3
17-01-1991,08:00,38,R,ugm-3,40,R,ugm-3,97,R,ugm-3
17-01-1991,09:00,40,R,ugm-3,46,R,ugm-3,107,R,ugm-3
17-01-1991,10:00,48,R,ugm-3,40,R,ugm-3,113,R,ugm-3
17-01-1991,11:00,56,R,ugm-3,40,R,ugm-3,126,R,ugm-3
17-01-1991,12:00,81,R,ugm-3,46,R,ugm-3,170,R,ugm-3
17-01-1991,13:00,139,R,ugm-3,52,R,ugm-3,264,R,ugm-3
17-01-1991,14:00,136,R,ugm-3,42,R,ugm-3,250,R,ugm-3
17-01-1991,15:00,136,R,ugm-3,52,R,ugm-3,260,R,ugm-3
17-01-1991,16:00,146,R,ugm-3,59,R,ugm-3,283,R,ugm-3
17-01-1991,17:00,284,R,ugm-3,69,R,ugm-3,502,R,ugm-3
17-01-1991,18:00,315,R,ugm-3,63,R,ugm-3,544,R,ugm-3
17-01-1991,19:00,405,R,ugm-3,59,R,ugm-3,678,R,ugm-3
17-01-1991,20:00,358,R,ugm-3,59,R,ugm-3,605,R,ugm-3
17-01-1991,21:00,366,R,ugm-3,63,R,ugm-3,623,R,ugm-3
17-01-1991,22:00,419,R,ugm-3,65,R,ugm-3,705,R,ugm-3
17-01-1991,23:00,465,R,ugm-3,69,R,ugm-3,779,R,ugm-3
17-01-1991,24:00,344,R,ugm-3,67,R,ugm-3,592,R,ugm-3
18-01-1991,01:00,241,R,ugm-3,82,R,ugm-3,451,R,ugm-3
18-01-1991,02:00,320,R,ugm-3,65,R,ugm-3,554,R,ugm-3
18-01-1991,03:00,218,R,ugm-3,59,R,ugm-3,392,R,ugm-3
18-01-1991,04:00,180,R,ugm-3,55,R,ugm-3,330,R,ugm-3
18-01-1991,05:00,78,R,ugm-3,53,R,ugm-3,172,R,ugm-3
18-01-1991,06:00,53,R,ugm-3,53,R,ugm-3,134,R,ugm-3
18-01-1991,07:00,66,R,ugm-3,53,R,ugm-3,155,R,ugm-3
18-01-1991,08:00,98,R,ugm-3,52,R,ugm-3,201,R,ugm-3
18-01-1991,09:00,101,R,ugm-3,52,R,ugm-3,206,R,ugm-3
18-01-1991,10:00,63,R,ugm-3,40,R,ugm-3,136,R,ugm-3
18-01-1991,11:00,40,R,ugm-3,44,R,ugm-3,105,R,ugm-3
18-01-1991,12:00,40,R,ugm-3,38,R,ugm-3,99,R,ugm-3
18-01-1991,13:00,44,R,ugm-3,42,R,ugm-3,109,R,ugm-3
18-01-1991,14:00,30,R,ugm-3,38,R,ugm-3,84,R,ugm-3
18-01-1991,15:00,24,R,ugm-3,38,R,ugm-3,74,R,ugm-3
18-01-1991,16:00,21,R,ugm-3,42,R,ugm-3,74,R,ugm-3
18-01-1991,17:00,25,R,ugm-3,46,R,ugm-3,84,R,ugm-3
18-01-1991,18:00,26,R,ugm-3,44,R,ugm-3,84,R,ugm-3
18-01-1991,19:00,25,R,ugm-3,44,R,ugm-3,82,R,ugm-3
18-01-1991,20:00,41,R,ugm-3,44,R,ugm-3,107,R,ugm-3
18-01-1991,21:00,59,R,ugm-3,44,R,ugm-3,134,R,ugm-3
18-01-1991,22:00,46,R,ugm-3,46,R,ugm-3,117,R,ugm-3
18-01-1991,23:00,36,R,ugm-3,44,R,ugm-3,99,R,ugm-3
18-01-1991,24:00,29,R,ugm-3,40,R,ugm-3,84,R,ugm-3
19-01-1991,01:00,33,R,ugm-3,57,R,ugm-3,107,R,ugm-3
19-01-1991,02:00,25,R,ugm-3,53,R,ugm-3,92,R,ugm-3
19-01-1991,03:00,26,R,ugm-3,50,R,ugm-3,90,R,ugm-3
19-01-1991,04:00,25,R,ugm-3,53,R,ugm-3,92,R,ugm-3
19-01-1991,05:00,29,R,ugm-3,59,R,ugm-3,103,R,ugm-3
19-01-1991,06:00,75,R,ugm-3,71,R,ugm-3,185,R,ugm-3
19-01-1991,07:00,106,R,ugm-3,74,R,ugm-3,237,R,ugm-3
19-01-1991,08:00,90,R,ugm-3,73,R,ugm-3,210,R,ugm-3
19-01-1991,09:00,178,R,ugm-3,76,R,ugm-3,348,R,ugm-3
19-01-1991,10:00,96,R,ugm-3,65,R,ugm-3,212,R,ugm-3
19-01-1991,11:00,78,R,ugm-3,59,R,ugm-3,178,R,ugm-3
19-01-1991,12:00,70,R,ugm-3,55,R,ugm-3,162,R,ugm-3
19-01-1991,13:00,55,R,ugm-3,50,R,ugm-3,134,R,ugm-3
19-01-1991,14:00,51,R,ugm-3,44,R,ugm-3,122,R,ugm-3
19-01-1991,15:00,41,R,ugm-3,53,R,ugm-3,117,R,ugm-3
19-01-1991,16:00,36,R,ugm-3,50,R,ugm-3,105,R,ugm-3
19-01-1991,17:00,55,R,ugm-3,67,R,ugm-3,151,R,ugm-3
19-01-1991,18:00,61,R,ugm-3,78,R,ugm-3,172,R,ugm-3
19-01-1991,19:00,53,R,ugm-3,67,R,ugm-3,147,R,ugm-3
19-01-1991,20:00,43,R,ugm-3,69,R,ugm-3,134,R,ugm-3
19-01-1991,21:00,25,R,ugm-3,59,R,ugm-3,97,R,ugm-3
19-01-1991,22:00,19,R,ugm-3,57,R,ugm-3,86,R,ugm-3
19-01-1991,23:00,11,R,ugm-3,53,R,ugm-3,71,R,ugm-3
19-01-1991,24:00,13,R,ugm-3,46,R,ugm-3,65,R,ugm-3
20-01-1991,01:00,21,R,ugm-3,36,R,ugm-3,69,R,ugm-3
20-01-1991,02:00,18,R,ugm-3,29,R,ugm-3,55,R,ugm-3
20-01-1991,03:00,18,R,ugm-3,23,R,ugm-3,50,R,ugm-3
20-01-1991,04:00,14,R,ugm-3,17,R,ugm-3,38,R,ugm-3
20-01-1991,05:00,15,R,ugm-3,10,R,ugm-3,32,R,ugm-3
20-01-1991,06:00,15,R,ugm-3,13,R,ugm-3,36,R,ugm-3
20-01-1991,07:00,14,R,ugm-3,23,R,ugm-3,44,R,ugm-3
20-01-1991,08:00,31,R,ugm-3,40,R,ugm-3,88,R,ugm-3
20-01-1991,09:00,33,R,ugm-3,38,R,ugm-3,88,R,ugm-3
20-01-1991,10:00,36,R,ugm-3,44,R,ugm-3,99,R,ugm-3